Flag for U.S.A. Weather past 2 weeks in Lafayette, Indiana, U.S.A.

Now
56 °F

Sunny.


Feels Like: 56 °F
Forecast: 44 / 68 °F
Wind: No wind

Location: Purdue University Airport

Current Time: Sep 18, 2014 at 10:31:49 AM

Latest Report: Sep 18, 2014 at 9:54 AM


Visibility: 8 mi

Pressure: 30.13 "Hg

Humidity: 84%

Dew point: 51 °F

Location of LafayetteLocation

Historic Weather in Lafayette — Graph

°F

Lafayette temperature yesterday

Maximum temperature yesterday: 68 °F (at 3:54 PM)
Minimum temperature yesterday: 42 °F (at 6:54 AM)
Average temperature yesterday: 54 °F

Past Weeks' High & Low Weather Summary

 TemperatureHumidityPressure
High91 °F (Sep 5, 3:54 PM)100% (Sep 3, 8:54 AM)30.35 "Hg (Sep 3, 8:54 AM)
Low41 °F (Sep 14, 6:01 AM)42% (Sep 8, 3:54 PM)29.63 "Hg (Sep 10, 4:54 PM)
Average61 °F82%30.09 "Hg
* Reported Sep 3 8:54 AM — Sep 18 8:54 AM, Lafayette, Weather by CustomWeather, © 2014

Note: Actual official high and low records may vary slightly from our data, if they occured in-between our weather recording intervals... More about our weather records

Advertising

Lafayette weather history for previous 24 hours

 ConditionsComfort  
Time TempWeatherWind HumidityBarometerVisibility
8:54 AM
Sep 18
50 °FSunny.3 mph96%30.11 "Hg8 mi
7:54 AM45 °FFog.No wind100%30.08 "Hg8 mi
6:54 AM46 °FFog.3 mph100%30.05 "Hg5 mi
5:54 AM46 °FFog.No wind100%30.04 "Hg6 mi
4:54 AM47 °FClear.No wind97%30.04 "Hg7 mi
3:54 AM47 °FFog.No wind100%30.04 "Hg6 mi
3:00 AM50 °FFog.No wind96%30.05 "Hg2 mi
1:54 AM51 °FOvercast.No wind96%30.04 "Hg9 mi
12:54 AM51 °FClear.No wind96%30.03 "Hg10 mi
11:54 PM
Sep 17
52 °FPassing clouds.No wind97%30.02 "Hg10 mi
10:54 PM53 °FClear.3 mph96%30.01 "Hg9 mi
9:54 PM55 °FOvercast.No wind93%30.00 "Hg10 mi
8:54 PM55 °FPassing clouds.3 mph90%29.98 "Hg10 mi
7:54 PM59 °FSunny.3 mph81%29.97 "Hg10 mi
6:54 PM67 °FSunny.No wind55%29.97 "Hg10 mi
5:54 PM68 °FSunny.No wind45%29.98 "Hg10 mi
4:54 PM68 °FOvercast.6 mph49%29.98 "Hg10 mi
3:54 PM68 °FScattered clouds.7 mph51%30.00 "Hg10 mi
2:54 PM67 °FPassing clouds.No wind51%30.01 "Hg10 mi
1:54 PM65 °FScattered clouds.No wind56%30.03 "Hg10 mi
12:54 PM63 °FPartly sunny.5 mph58%30.04 "Hg10 mi
11:54 AM62 °FSunny.3 mph73%30.06 "Hg10 mi
10:54 AM57 °FSunny.No wind87%30.05 "Hg10 mi
Weather by CustomWeather, © 2014

See weather overviewHow to use our weather pages